Location: Haram ta Haram Freeway
(35.0583°N, 51.4202°E)
Time: 03:35:25
(UTC+03:30)

IRIDIUM 33 DEB - Pass Details

Date: 30 November 2021
Orbit: 663 x 816 km, 86.4° (Epoch: 21 January)

Event Time Altitude Azimuth Distance (km) Brightness Sun altitude
Rises 18:22:11 0° 155° (SSE) 3,335 ? -18.0°
Reaches altitude 10° 18:24:48 10° 145° (SE) 2,410 ? -18.5°
Enters shadow 18:27:56 26° 115° (ESE) 1,547 ? -19.1°
